Regional Weather Roundup
Issued by NWS New Orleans/Baton Rouge, LA

Home | Current Version | Previous Version | Graphics & Text | Print | Product List | Glossary On
Versions: 1 2 3 4 5 6 7 8 9 10 11 12 13 14 15 16 17 18 19 20 21 22 23 24 25 26 27 28 29 30 31 32 33 34 35 36 37 38 39 40 41 42 43 44 45 46 47 48 49 50
724
ASUS44 KLIX 161901
RWRLIX
NEW ORLEANS REGIONAL WEATHER ROUNDUP
NATIONAL WEATHER SERVICE NEW ORLEANS LA
200 PM CDT WED APR 16 2014

NOTE: "FAIR" INDICATES FEW OR NO CLOUDS BELOW 12,000 FEET WITH NO
      SIGNIFICANT WEATHER AND/OR OBSTRUCTIONS TO VISIBILITY.
      SKY/WX - SKY CONDITION AND SIGNIFICANT WEATHER.
      TMP - AIR TEMPERATURE.     DP    - DEWPOINT TEMPERATURE.
      RH  - RELATIVE HUMIDITY.   PRES  - PRESSURE.
      HI  - HEAT INDEX.          WCI   - WIND CHILL INDEX.

*  THESE STATIONS ARE NOT NWS OR FAA STATIONS AND ARE NOT UNDER
   NWS QUALITY CONTROL.

LAZ038-040-048-061>063-065>067-069-162000-
SOUTHEAST LOUISIANA

CITY           SKY/WX    TMP DP  RH WIND       PRES   REMARKS
N.O. AUDUBON   NOT AVBL
N.O. INTL ARPT MOSUNNY   61  44  53 NE10      30.19F
N.O. LAKEFRONT SUNNY     58  42  55 NE14      30.20F
N.O. DOWNTOWN*   N/A     61  37  41 E3        30.20F
SLIDELL        SUNNY     62  35  36 S6        30.19F
BATON ROUGE    SUNNY     63  35  35 VRB3      30.18F
BOOTHVILLE     MOSUNNY   60  46  59 NE7       30.20S
BELLE CHASSE   MOSUNNY   62  42  47 SE10      30.19F
BOGALUSA*        N/A     62  31  30 CALM      30.21F
GALLIANO*      NOT AVBL
NEW ROADS*     NOT AVBL
GONZALES*        N/A     61  38  42 N3        30.18F
HAMMOND*       NOT AVBL
HOUMA*         MOSUNNY   64  41  42 NE9       30.18F
PORT FOURCHON* CLOUDY    61  45  55 VRB3G13   30.19F

$$

MSZ070-080>082-162000-
SOUTHERN MISSISSIPPI

CITY           SKY/WX    TMP DP  RH WIND       PRES   REMARKS
MCCOMB         SUNNY     59  29  31 CALM      30.19F
GULFPORT       SUNNY     59  37  44 VRB7      30.19F
BILOXI         NOT AVBL
PASCAGOULA     SUNNY     63  40  42 VRB5      30.17F
STENNIS ARPT*  SUNNY     61  28  29 S6        30.20F

$$

COASTAL OBSERVATIONS
LAKE AND NEARSHORE STATIONS

STATION/POSITION TIME  TEMP    WIND        PRES    WAVE
                       AIR SEA DIR/SP/G            HT/PER
                 (UTC) (F)     (DEG/KT/KT) (MB)    (FT/S)
PASCAGOULA       1800   57     130/  6/  9 1021.7
WAVELAND YACHT   1800   52 65  160/  7/  9 1021.9
GRAND ISLE       1800   60 66   80/  8/ 11 1022.6
SOUTHWEST PASS   1800   67 58   50/ 10/ 12 1022.3
NEW CANAL        1800   55 62   40/ 11/ 14 1023.1
SHELL BEACH      1800   55 60   40/  8/ 12 1022.8

OFFSHORE STATIONS

STATION/POSITION TIME  TEMP    WIND        PRES    WAVE
                       AIR SEA DIR/SP/G            HT/PER
                 (UTC) (F)     (DEG/KT/KT) (MB)    (FT/S)
64 S DAUPHIN ISL 1800   56      60/ 12     1022.1

$$




USA.gov is the U.S. government's official web portal to all federal, state and local government web resources and services.